Location: *
(45.5667°S, 177.5167°W)
Time: 19:08:41
(UTC+00:00)

SJ 16-02 - Visible Passes

Search period start: 02 October 2022 00:00
Search period end: 12 October 2022 00:00
Orbit: 604 x 613 km, 75.0° (Epoch: 02 October)

Date Brightness Start Highest point End Pass type
(mag) Time Alt. Az. Time Alt. Az. Time Alt. Az.
02 Oct 3.3 07:17:22 10° SW 07:21:16 30° W 07:25:07 10° NNW visible
03 Oct 4.2 07:32:10 10° SW 07:35:03 17° W 07:37:54 10° NW visible
06 Oct 3.7 06:35:03 10° SW 06:38:51 28° W 06:42:37 10° NNW visible
07 Oct 4.4 06:49:55 10° WSW 06:52:38 16° W 06:55:18 10° NW visible
